User: anonymous   Login
Location: Unspecified
(0.0000°N, 0.0000°E)
Time: 00:32:20
(UTC+00:00)
Language:

QIANFAN-31 - Orbit

View from above orbital plane
View from above orbital plane
View from above satellite
View from above satellite

Ground track
Ground track

The orbit is defined by the following mean orbital elements,

1 61564U          26104.58428478 +.00000000 +00000-0 -74151-4 0 00007
2 61564  88.9774  67.7678 0008527  42.6720 317.5096 13.58018562    01
Epoch (UTC): 14 April 2026 14:01:22
Eccentricity: 0.0008527
inclination: 88.9774°
perigee height: 1037 km
apogee height: 1049 km
right ascension of ascending node: 67.7678°
argument of perigee: 42.6720°
revolutions per day: 13.58018562
mean anomaly at epoch: 317.5096°

The dashed part of the orbit path shows where the satellite is in the earth's shadow,  

DLR